Warroad, MN

11:15 AM CDT on September 29, 2016 (GMT -0500)
Warroad International-Carlson

Weather History for KRRT - March, 2013

Change the Weather History Date:

Friday, March 8, 2013

  Actual Average Record
Temperature  
Mean Temperature 26 °F -  
Max Temperature 30 °F 29 °F 48 °F (1968)
Min Temperature 21 °F 8 °F -27 °F (2003)
Degree Days  
Heating Degree Days 40    
Moisture  
Dew Point 20 °F    
Average Humidity 77    
Maximum Humidity 86    
Minimum Humidity 69    
Precipitation  
Precipitation 0.00 in - - ()
Sea Level Pressure  
Sea Level Pressure 30.16 in    
Wind  
Wind Speed 7 mph (SSW)    
Max Wind Speed 12 mph    
Max Gust Speed 16 mph    
Visibility 8 miles    
Events      
Averages and records for this station are not official NWS values.
T = Trace of Precipitation, MM = Missing Value Source: NWS Daily Summary

Daily Weather History Graph

Daily Weather History Graph

Search for Another Location

Airport or City:

Trip Planner

Search our weather history database for the weather conditions in past years. The results will help you decide how hot, cold, wet, or windy it might be!

Date:

Astronomy

Mar. 08, 2013 Rise Set
Actual Time 6:48 AM CST 6:16 PM CST
Civil Twilight 6:17 AM CST 6:47 PM CST
Nautical Twilight 5:40 AM CST 7:24 PM CST
Astronomical Twilight 5:03 AM CST 8:01 PM CST
Moon 4:47 AM CST (3/8) 3:00 PM CST (3/8)
Length of Visible Light 12h 30m
Length of Day
11h 27m
Waning Crescent, 11% of the Moon is Illuminated
Mar 8
Waning Crescent
Mar 11
New
Mar 19
First Quarter
Mar 27
Full
Apr 2
Last Quarter

Hourly Weather History & Observations

Time (CST) Temp. Windchill Dew Point Humidity Pressure Visibility Wind Dir Wind Speed Gust Speed Precip Events Conditions
12:14 AM 23.0 °F 13.1 °F 15.8 °F 74% 30.19 in 10.0 mi South 9.2 mph - N/A   Clear
12:34 AM 21.2 °F 10.9 °F 14.0 °F 74% 30.19 in 10.0 mi South 9.2 mph - N/A   Clear
12:54 AM 23.0 °F 12.4 °F 15.8 °F 74% 30.19 in 10.0 mi South 10.4 mph - N/A   Mostly Cloudy
1:14 AM 23.0 °F 13.9 °F 15.8 °F 74% 30.19 in 10.0 mi South 8.1 mph - N/A   Overcast
1:34 AM 23.0 °F 13.9 °F 15.8 °F 74% 30.19 in 10.0 mi South 8.1 mph - N/A   Overcast
1:54 AM 23.0 °F 13.9 °F 15.8 °F 74% 30.19 in 10.0 mi South 8.1 mph - N/A   Overcast
2:14 AM 23.0 °F 14.7 °F 15.8 °F 74% 30.19 in 10.0 mi South 6.9 mph - N/A   Overcast
2:34 AM 23.0 °F 17.0 °F 15.8 °F 74% 30.18 in 10.0 mi South 4.6 mph - N/A   Overcast
2:54 AM 24.8 °F 14.0 °F 17.6 °F 74% 30.18 in 10.0 mi SSW 11.5 mph 16.1 mph N/A   Overcast
3:14 AM 24.8 °F 14.0 °F 17.6 °F 74% 30.17 in 10.0 mi SSW 11.5 mph - N/A   Overcast
3:34 AM 24.8 °F 16.9 °F 17.6 °F 74% 30.17 in 10.0 mi SSW 6.9 mph - N/A   Overcast
3:53 AM 24.8 °F 15.3 °F 17.6 °F 74% 30.17 in 10.0 mi SSW 9.2 mph - N/A   Overcast
4:14 AM 24.8 °F 16.1 °F 17.6 °F 74% 30.17 in 10.0 mi SSW 8.1 mph - N/A   Overcast
4:33 AM 24.8 °F 16.1 °F 17.6 °F 74% 30.17 in 10.0 mi SSW 8.1 mph - N/A   Overcast
4:54 AM 24.8 °F 16.1 °F 19.4 °F 80% 30.17 in 10.0 mi SSW 8.1 mph - N/A   Overcast
5:14 AM 23.0 °F 13.9 °F 19.4 °F 86% 30.17 in 7.0 mi SSW 8.1 mph - N/A   Overcast
5:33 AM 23.0 °F 15.8 °F 19.4 °F 86% 30.17 in 7.0 mi SSW 5.8 mph - N/A   Overcast
5:54 AM 23.0 °F 15.8 °F 19.4 °F 86% 30.17 in 7.0 mi SSW 5.8 mph - N/A   Overcast
6:14 AM 23.0 °F 14.7 °F 19.4 °F 86% 30.17 in 5.0 mi SSW 6.9 mph - N/A   Overcast
6:33 AM 23.0 °F 15.8 °F 19.4 °F 86% 30.17 in 5.0 mi SSW 5.8 mph - N/A   Overcast
6:54 AM 23.0 °F 14.7 °F 19.4 °F 86% 30.17 in 4.0 mi SSW 6.9 mph - N/A   Overcast
7:14 AM 23.0 °F 14.7 °F 19.4 °F 86% 30.17 in 2.5 mi SSW 6.9 mph - N/A   Overcast
7:33 AM 23.0 °F 15.8 °F 19.4 °F 86% 30.17 in 2.5 mi SSW 5.8 mph - N/A   Overcast
7:54 AM 23.0 °F 13.9 °F 19.4 °F 86% 30.17 in 2.5 mi SSW 8.1 mph - N/A   Overcast
8:14 AM 23.0 °F 17.0 °F 19.4 °F 86% 30.16 in 2.5 mi SSW 4.6 mph - N/A   Overcast
8:33 AM 24.8 °F 16.9 °F 19.4 °F 80% 30.15 in 3.0 mi South 6.9 mph - N/A   Overcast
8:54 AM 24.8 °F 16.9 °F 19.4 °F 80% 30.15 in 4.0 mi South 6.9 mph - N/A   Overcast
9:14 AM 24.8 °F 19.1 °F 21.2 °F 86% 30.16 in 4.0 mi South 4.6 mph - N/A   Overcast
9:34 AM 24.8 °F 16.1 °F 21.2 °F 86% 30.17 in 4.0 mi SSW 8.1 mph - N/A   Overcast
9:54 AM 26.6 °F 19.1 °F 21.2 °F 80% 30.16 in 5.0 mi SW 6.9 mph - N/A   Overcast
10:14 AM 26.6 °F 16.8 °F 21.2 °F 80% 30.17 in 5.0 mi SSW 10.4 mph - N/A   Overcast
10:34 AM 26.6 °F 16.8 °F 21.2 °F 80% 30.17 in 5.0 mi SSW 10.4 mph - N/A   Overcast
10:54 AM 26.6 °F 18.2 °F 21.2 °F 80% 30.17 in 7.0 mi South 8.1 mph - N/A   Overcast
11:14 AM 28.4 °F 20.4 °F 21.2 °F 74% 30.17 in 7.0 mi SSW 8.1 mph - N/A   Overcast
11:34 AM 28.4 °F 18.5 °F 21.2 °F 74% 30.17 in 7.0 mi SSW 11.5 mph - N/A   Overcast
11:54 AM 28.4 °F 19.1 °F 21.2 °F 74% 30.17 in 10.0 mi SSW 10.4 mph - N/A   Overcast
12:14 PM 28.4 °F 19.1 °F 23.0 °F 80% 30.17 in 7.0 mi SW 10.4 mph - N/A   Overcast
12:34 PM 30.2 °F 21.3 °F 21.2 °F 69% 30.16 in 10.0 mi SSW 10.4 mph - N/A   Overcast
12:54 PM 30.2 °F 21.9 °F 23.0 °F 75% 30.17 in 10.0 mi SW 9.2 mph - N/A   Overcast
1:14 PM 30.2 °F 21.9 °F 23.0 °F 75% 30.17 in 10.0 mi SW 9.2 mph 16.1 mph N/A   Overcast
1:33 PM 30.2 °F 20.8 °F 23.0 °F 75% 30.16 in 10.0 mi WSW 11.5 mph - N/A   Overcast
1:54 PM 30.2 °F 21.3 °F 23.0 °F 75% 30.16 in 10.0 mi WSW 10.4 mph 16.1 mph N/A   Overcast
2:14 PM 30.2 °F 21.3 °F 21.2 °F 69% 30.16 in 10.0 mi SW 10.4 mph - N/A   Overcast
2:34 PM 30.2 °F 21.3 °F 21.2 °F 69% 30.16 in 10.0 mi SW 10.4 mph - N/A   Overcast
2:54 PM 30.2 °F 21.9 °F 21.2 °F 69% 30.16 in 10.0 mi WSW 9.2 mph - N/A   Overcast
3:14 PM 30.2 °F 21.3 °F 21.2 °F 69% 30.17 in 10.0 mi SW 10.4 mph - N/A   Overcast
3:34 PM 30.2 °F 21.9 °F 21.2 °F 69% 30.17 in 10.0 mi WSW 9.2 mph - N/A   Overcast
3:54 PM 30.2 °F 21.9 °F 21.2 °F 69% 30.16 in 10.0 mi SW 9.2 mph - N/A   Mostly Cloudy
4:14 PM 30.2 °F 22.6 °F 21.2 °F 69% 30.17 in 10.0 mi WSW 8.1 mph - N/A   Overcast
4:34 PM 30.2 °F 21.9 °F 21.2 °F 69% 30.17 in 10.0 mi WSW 9.2 mph - N/A   Overcast
4:54 PM 28.4 °F 20.4 °F 21.2 °F 74% 30.17 in 10.0 mi WSW 8.1 mph - N/A   Overcast
5:14 PM 28.4 °F 19.7 °F 21.2 °F 74% 30.16 in 10.0 mi WSW 9.2 mph - N/A   Overcast
5:34 PM 28.4 °F 19.7 °F 21.2 °F 74% 30.16 in 10.0 mi WSW 9.2 mph - N/A   Overcast
5:54 PM 28.4 °F 22.2 °F 21.2 °F 74% 30.17 in 10.0 mi WSW 5.8 mph - N/A   Overcast
6:14 PM 28.4 °F 22.2 °F 21.2 °F 74% 30.16 in 10.0 mi WSW 5.8 mph - N/A   Overcast
6:34 PM 28.4 °F 23.3 °F 21.2 °F 74% 30.16 in 10.0 mi WSW 4.6 mph - N/A   Overcast
6:54 PM 26.6 °F 22.6 °F 21.2 °F 80% 30.16 in 10.0 mi SW 3.5 mph - N/A   Overcast
7:14 PM 26.6 °F - 21.2 °F 80% 30.15 in 10.0 mi Calm Calm - N/A   Mostly Cloudy
7:34 PM 26.6 °F - 19.4 °F 74% 30.15 in 10.0 mi Calm Calm - N/A   Mostly Cloudy
7:54 PM 24.8 °F - 19.4 °F 80% 30.15 in 10.0 mi Calm Calm - N/A   Mostly Cloudy
8:14 PM 26.6 °F - 19.4 °F 74% 30.14 in 10.0 mi Calm Calm - N/A   Overcast
8:34 PM 23.0 °F - 19.4 °F 86% 30.14 in 10.0 mi Calm Calm - N/A   Mostly Cloudy
8:53 PM 24.8 °F - 19.4 °F 80% 30.14 in 10.0 mi Calm Calm - N/A   Mostly Cloudy
9:14 PM 24.8 °F - 19.4 °F 80% 30.12 in 10.0 mi Calm Calm - N/A   Scattered Clouds
9:34 PM 24.8 °F - 19.4 °F 80% 30.11 in 10.0 mi Calm Calm - N/A   Clear
9:54 PM 24.8 °F - 19.4 °F 80% 30.12 in 7.0 mi Calm Calm - N/A   Clear
10:14 PM 24.8 °F - 19.4 °F 80% 30.11 in 7.0 mi Calm Calm - N/A   Scattered Clouds
10:34 PM 24.8 °F - 19.4 °F 80% 30.11 in 7.0 mi Calm Calm - N/A   Mostly Cloudy
10:54 PM 24.8 °F - 19.4 °F 80% 30.11 in 10.0 mi Calm Calm - N/A   Scattered Clouds
11:14 PM 24.8 °F - 21.2 °F 86% 30.11 in 7.0 mi Calm Calm - N/A   Scattered Clouds
11:34 PM 24.8 °F - 19.4 °F 80% 30.11 in 10.0 mi Calm Calm - N/A   Mostly Cloudy
11:54 PM 24.8 °F - 19.4 °F 80% 30.11 in 7.0 mi Calm Calm - N/A   Overcast